sat.trackr.live / text

‹ back to catalog

QIANFAN-31

NORAD 61564 · 2024-185N

PAYLOAD ACTIVE UNKNOWN

§ Identity

Operator
Country
PRC
Launch date
2024-10-15
Launch site
TAISC
Launch vehicle
Mass (kg)
RCS (m²)

External: N2YO · Heavens-Above · Gunter

§ Orbital elements

Epoch: 2026-09-22T20:50:45.436416Z

Period
106.03 min
Inclination
88.9812°
Eccentricity
0.0005256
Mean motion
13.58065947 rev/d
Perigee alt
1,038.8 km
Apogee alt
1,046.6 km
Semi-major
7,420.9 km
B*
1.8579e-4
RAAN
50.9282°
Arg perigee
280.8001°
Mean anomaly
79.2562°
Rev number
10,672

§ Raw data

QIANFAN-311 61564U 24185N   26265.86858144  .00000146  00000+0  18579-3 0  99902 61564  88.9812  50.9282 0005256 280.8001  79.2562 13.58065947106728

JSON: /api/v1/satellites/61564 · /tle

For live sub-satellite position, see the globe view (requires WebGL).

§ Visibility from observer

Set your observer location to see the next 7 days of passes ≥ 10°. The values pass through the URL so the page stays shareable.

No JS? Fill the form by hand. The geolocation button needs JavaScript.